Regional Weather Roundup
Issued by NWS Northern Indiana

Home | Current Version | Previous Version | Text Only | Print | Product List | Glossary Off
Versions: 1 2 3 4 5 6 7 8 9 10 11 12 13 14 15 16 17 18 19 20 21 22 23 24 25 26 27 28 29 30 31 32 33 34 35 36 37 38 39 40 41 42 43 44 45 46 47 48 49 50

000
ASUS43 KIWX 232110
RWRIWX

KIWX WEATHER ROUNDUP
NATIONAL WEATHER SERVICE NORTHERN INDIANA
500 PM EDT MON OCT 23 2017

NOTE: "FAIR" INDICATES FEW OR NO CLOUDS BELOW 12,000 FEET WITH NO
SIGNIFICANT WEATHER AND/OR OBSTRUCTIONS TO VISIBILITY.

* THESE STATIONS ARE NOT UNDER NWS QUALITY CONTROL. THEY ALSO MAY NOT
  REPORT WEATHER SUCH AS PRECIPITATION OR FOG.

INZ001>027-232200-
NORTHERN INDIANA

CITY           SKY/WX    TMP DP  RH WIND       PRES   REMARKS
GARY*          CLOUDY    54  50  87 W14       29.70S
VALPARAISO     LGT RAIN  51  48  89 NW10      29.66F
MICHIGAN CITY* RAIN      50  50 100 NW10G20   29.65F
LAPORTE*       RAIN      51  50  95 NW15G23   29.64F
KNOX*          CLOUDY    50  50 100 NW15      29.64S
SOUTH BEND     LGT RAIN  54 N/A N/A NW17      29.59F
ELKHART*       LGT RAIN  54  52  94 NW12G17   29.55F FOG
GOSHEN         RAIN      54  51  90 NW20G25   29.53F FOG
MONTICELLO*    RAIN      49  48  95 W15       29.67S
LOGANSPORT*    RAIN      50  50 100 W14G23    29.65R
WARSAW*        LGT RAIN  54  54 100 NW20G26   29.55S
AUBURN*        LGT RAIN  61  57  88 S13G22    29.52F
FORT WAYNE     LGT RAIN  58  55  90 SW23G29   29.55S
HUNTINGTON*    LGT RAIN  55  54  96 W12G18    29.58R
PERU/GRISSOM   RAIN      55  55 100 W15       29.62R
MARION*        CLOUDY    55  54  94 W12G17    29.62F

$$
INZ028>050-232200-
CENTRAL INDIANA

CITY           SKY/WX    TMP DP  RH WIND       PRES   REMARKS
LAFAYETTE      RAIN      50  50 100 NW15      29.69S
KOKOMO*        LGT RAIN  55  53  93 W14       29.64R
MUNCIE*        LGT RAIN  58  55  90 W14       29.61F
INDIANAPOLIS   LGT RAIN  55  53  93 W14       29.67F

$$
MIZ043>046-050>051-056>058-064>065-071>073-077>080-232200-
SOUTHWEST LOWER MICHIGAN

CITY           SKY/WX    TMP DP  RH WIND       PRES   REMARKS
BATTLE CREEK   RAIN      59  58  96 NW9       29.52F VSB 1
BENTON HARBOR  LGT RAIN  56  53  90 NW8       29.60F
COLDWATER*     RAIN      62  61  97 S7        29.49F
HILLSDALE*     LGT RAIN  61  57  88 S9G18     29.52F
HOLLAND        LGT RAIN  53  51  93 N8        29.60F
GRAND RAPIDS   RAIN      52  52 100 N12       29.56F FOG
KALAMAZOO      RAIN      54  51  90 NW16      29.54F VSB 1
STURGIS*       RAIN      56  56  97 NW12G24   29.50F
THREE RIVERS*  HVY RAIN  56  54  95 NW14      29.52F

$$
OHZ001>008-015>018-024>025-232200-
NORTHWEST OHIO

CITY           SKY/WX    TMP DP  RH WIND       PRES   REMARKS
WAUSEON*       LGT RAIN  63  61  94 S23G33    29.55F
DEFIANCE       LGT RAIN  60  56  86 S13G20    29.55F
FINDLAY        LGT RAIN  63  57  81 S20       29.58F
TOLEDO EXPRESS LGT RAIN  63  63 100 S10       29.55F
TOLEDO METCALF CLOUDY    64  60  87 S15       29.57F
LIMA           LGT RAIN  61  59  93 S13       29.60F

$$
AND FOR LAKE MICHIGAN COASTAL AND OPEN LAKE BUOY OBSERVATIONS

STATION/POSITION TEMP    WIND        PRES    VSBY  WAVE
                 AIR SEA DIR/SP/G                  HT/PER
                 (F)     (DEG/KT/KT) (MB)    (MI)  (FT/S)
CALUMET HARBOR    53     290/  4/  8 1005.2R
MICHIGAN CITY     53     310/ 25/ 27   N/A
BURNS HARBOR      54     340/ 19/ 21 1005.1S
SAINT JOSEPH      56     340/ 18/ 24 1003.7
SOUTH LAKE BUOY   54 60  350/ 17/ 19 1004.5R         3/ 4
4 MI NW BRIDGMAN  55 58  350/ 21/ 27 1003.6          6/ 5
MICHIGAN CITY     53 57  320/ 19/ 25   N/A           6/ 6

$$
&&



USA.gov is the U.S. government's official web portal to all federal, state and local government web resources and services.